| time (UTC) | temp C | wind direction | speed KPH | gust KPH | rain 1hr cm | rain 24hr cm | rain mn cm | humidity % | barometer mb |
| 20260504151003 | 17 | 186 | 9.7 | 17.7 | 0.00 | 0.00 | 0.00 | 68 | 1004.9 |
| 20260504150503 | 17 | 197 | 9.7 | 17.7 | 0.00 | 0.00 | 0.00 | 68 | 1004.8 |
| 20260504141003 | 18 | 203 | 6.4 | 11.3 | 0.00 | 0.00 | 0.00 | 64 | 1005.7 |
| 20260504140524 | 19 | 196 | 6.4 | 16.1 | 0.00 | 0.00 | 0.00 | 64 | 1005.7 |
| 20260504130503 | 18 | 193 | 8.0 | 14.5 | 0.00 | 0.00 | 0.00 | 67 | 1006.4 |
| 20260504110503 | 15 | 231 | 3.2 | 6.4 | 0.00 | 0.00 | 0.00 | 74 | 1006.5 |
| 20260504100503 | 16 | 209 | 1.6 | 8.0 | 0.00 | 0.00 | 0.00 | 67 | 1006.8 |
| 20260504082003 | 13 | 276 | 1.6 | 4.8 | 0.00 | 0.00 | 0.00 | 78 | 1006.7 |
| 20260504081503 | 13 | 277 | 1.6 | 4.8 | 0.00 | 0.00 | 0.00 | 77 | 1006.7 |
| 20260504081003 | 14 | 277 | 1.6 | 4.8 | 0.00 | 0.00 | 0.00 | 77 | 1006.8 |
| 20260504080503 | 14 | 0 | 0.0 | 3.2 | 0.00 | 0.00 | 0.00 | 76 | 1006.9 |
| 20260504050503 | 17 | 224 | 1.6 | 4.8 | 0.00 | 0.00 | 0.00 | 68 | 1006.9 |
| 20260504050003 | 17 | 224 | 1.6 | 4.8 | 0.00 | 0.00 | 0.00 | 68 | 1006.8 |
| 20260504045503 | 17 | 224 | 1.6 | 4.8 | 0.00 | 0.00 | 0.00 | 68 | 1006.8 |
| 20260504045003 | 17 | 224 | 1.6 | 4.8 | 0.00 | 0.00 | 0.00 | 67 | 1006.7 |
| 20260504044503 | 17 | 224 | 1.6 | 14.5 | 0.00 | 0.00 | 0.00 | 67 | 1006.7 |
| 20260504044003 | 17 | 224 | 3.2 | 14.5 | 0.00 | 0.00 | 0.00 | 67 | 1006.7 |
| 20260504043524 | 17 | 229 | 4.8 | 14.5 | 0.00 | 0.00 | 0.00 | 67 | 1006.8 |
| 20260504043003 | 17 | 254 | 4.8 | 14.5 | 0.00 | 0.00 | 0.00 | 67 | 1006.8 |
| 20260504042503 | 17 | 279 | 4.8 | 6.4 | 0.00 | 0.00 | 0.00 | 68 | 1006.9 |
| 20260504042003 | 18 | 296 | 3.2 | 9.7 | 0.00 | 0.00 | 0.00 | 68 | 1007.1 |
| 20260504041503 | 18 | 320 | 3.2 | 9.7 | 0.00 | 0.00 | 0.00 | 67 | 1007.3 |
| 20260504041024 | 18 | 328 | 3.2 | 14.5 | 0.00 | 0.00 | 0.00 | 66 | 1007.5 |
| 20260504040524 | 18 | 292 | 4.8 | 14.5 | 0.00 | 0.00 | 0.00 | 65 | 1007.6 |
| 20260504040003 | 19 | 282 | 4.8 | 14.5 | 0.00 | 0.00 | 0.00 | 64 | 1007.6 |
| 20260504035503 | 19 | 287 | 3.2 | 14.5 | 0.00 | 0.00 | 0.00 | 63 | 1007.9 |
| 20260504035024 | 20 | 228 | 1.6 | 8.0 | 0.00 | 0.00 | 0.00 | 61 | 1007.6 |
| 20260504034503 | 20 | 224 | 3.2 | 8.0 | 0.00 | 0.00 | 0.00 | 61 | 1007.7 |
| 20260504034003 | 20 | 210 | 4.8 | 16.1 | 0.00 | 0.00 | 0.00 | 60 | 1007.6 |
| 20260504033503 | 20 | 202 | 6.4 | 16.1 | 0.00 | 0.00 | 0.00 | 59 | 1007.5 |
| 20260504033024 | 20 | 204 | 6.4 | 14.5 | 0.00 | 0.00 | 0.00 | 58 | 1007.1 |
| 20260504032503 | 20 | 204 | 6.4 | 14.5 | 0.00 | 0.00 | 0.00 | 57 | 1007.6 |
| 20260504032003 | 20 | 202 | 6.4 | 14.5 | 0.00 | 0.00 | 0.00 | 57 | 1007.5 |
| 20260504031503 | 20 | 197 | 6.4 | 12.9 | 0.00 | 0.00 | 0.00 | 58 | 1007.6 |
| 20260504031024 | 20 | 196 | 6.4 | 12.9 | 0.00 | 0.00 | 0.00 | 58 | 1007.6 |
| 20260504030503 | 19 | 202 | 4.8 | 9.7 | 0.00 | 0.00 | 0.00 | 58 | 1007.7 |
| 20260504030003 | 19 | 205 | 4.8 | 9.7 | 0.00 | 0.00 | 0.00 | 59 | 1007.8 |
| 20260504025503 | 19 | 205 | 3.2 | 6.4 | 0.00 | 0.00 | 0.00 | 59 | 1007.7 |
| 20260504025003 | 19 | 206 | 3.2 | 8.0 | 0.00 | 0.00 | 0.00 | 60 | 1007.6 |
| 20260504024503 | 19 | 208 | 3.2 | 8.0 | 0.00 | 0.00 | 0.00 | 60 | 1007.6 |
| 20260504024003 | 19 | 220 | 4.8 | 9.7 | 0.00 | 0.00 | 0.00 | 60 | 1007.6 |
| 20260504023503 | 19 | 248 | 4.8 | 9.7 | 0.00 | 0.00 | 0.00 | 61 | 1007.6 |
| 20260504023024 | 19 | 273 | 4.8 | 6.4 | 0.00 | 0.00 | 0.00 | 62 | 1007.6 |
| 20260504022503 | 19 | 285 | 3.2 | 6.4 | 0.00 | 0.00 | 0.00 | 63 | 1007.6 |
| 20260504022003 | 19 | 294 | 1.6 | 3.2 | 0.00 | 0.00 | 0.00 | 62 | 1007.6 |
| 20260504021503 | 20 | 0 | 0.0 | 3.2 | 0.00 | 0.00 | 0.00 | 61 | 1007.6 |
| 20260504021003 | 20 | 0 | 0.0 | 1.6 | 0.00 | 0.00 | 0.00 | 61 | 1007.6 |
| 20260504020524 | 20 | 0 | 0.0 | 0.0 | 0.00 | 0.00 | 0.00 | 60 | 1007.5 |
| 20260504020003 | 20 | 0 | 0.0 | 1.6 | 0.00 | 0.00 | 0.00 | 59 | 1007.5 |
| 20260504015503 | 20 | 0 | 0.0 | 1.6 | 0.00 | 0.00 | 0.00 | 59 | 1007.5 |
| 20260504015024 | 20 | 0 | 0.0 | 1.6 | 0.00 | 0.00 | 0.00 | 59 | 1007.5 |
| 20260504014503 | 21 | 0 | 0.0 | 1.6 | 0.00 | 0.00 | 0.00 | 57 | 1007.5 |
| 20260504014003 | 21 | 0 | 0.0 | 1.6 | 0.00 | 0.00 | 0.00 | 55 | 1007.5 |
| 20260504013503 | 21 | 0 | 0.0 | 1.6 | 0.00 | 0.00 | 0.00 | 54 | 1007.5 |
| 20260504013003 | 21 | 0 | 0.0 | 1.6 | 0.00 | 0.00 | 0.00 | 53 | 1007.5 |
| 20260504012503 | 21 | 0 | 0.0 | 1.6 | 0.00 | 0.00 | 0.00 | 52 | 1007.5 |
| 20260504012003 | 22 | 0 | 0.0 | 3.2 | 0.00 | 0.00 | 0.00 | 51 | 1007.5 |
| 20260504011503 | 22 | 0 | 0.0 | 3.2 | 0.00 | 0.00 | 0.00 | 51 | 1007.4 |
| 20260504011003 | 22 | 0 | 0.0 | 3.2 | 0.00 | 0.00 | 0.00 | 50 | 1007.3 |
| 20260504010503 | 22 | 294 | 1.6 | 6.4 | 0.00 | 0.00 | 0.00 | 49 | 1007.3 |
| 20260504010003 | 22 | 292 | 3.2 | 12.9 | 0.00 | 0.00 | 0.00 | 49 | 1007.2 |
| 20260504005503 | 23 | 269 | 3.2 | 12.9 | 0.00 | 0.00 | 0.00 | 48 | 1007.3 |
| 20260504005024 | 23 | 229 | 1.6 | 6.4 | 0.00 | 0.00 | 0.00 | 48 | 1007.1 |
| 20260504004503 | 23 | 227 | 1.6 | 6.4 | 0.00 | 0.00 | 0.00 | 47 | 1007.0 |
| 20260504004024 | 23 | 226 | 3.2 | 6.4 | 0.00 | 0.00 | 0.00 | 46 | 1007.0 |
| 20260504003503 | 23 | 229 | 3.2 | 9.7 | 0.00 | 0.00 | 0.00 | 46 | 1007.0 |
| 20260504003024 | 23 | 233 | 3.2 | 9.7 | 0.00 | 0.00 | 0.00 | 46 | 1007.0 |
| 20260504002503 | 23 | 238 | 1.6 | 6.4 | 0.00 | 0.00 | 0.00 | 45 | 1007.0 |
| 20260504002003 | 23 | 240 | 3.2 | 8.0 | 0.00 | 0.00 | 0.00 | 45 | 1007.1 |
| 20260504001503 | 23 | 245 | 3.2 | 8.0 | 0.00 | 0.00 | 0.00 | 44 | 1007.0 |
| 20260504001003 | 24 | 251 | 3.2 | 11.3 | 0.00 | 0.00 | 0.00 | 44 | 1007.0 |
| 20260504000503 | 24 | 256 | 3.2 | 11.3 | 0.00 | 0.00 | 0.00 | 44 | 1007.1 |
| 20260504000003 | 24 | 256 | 4.8 | 12.9 | 0.00 | 0.00 | 0.00 | 43 | 1007.1 |
| 20260503235503 | 24 | 247 | 6.4 | 16.1 | 0.00 | 0.00 | 0.00 | 42 | 1007.1 |
| 20260503235003 | 24 | 240 | 6.4 | 16.1 | 0.00 | 0.00 | 0.00 | 42 | 1007.2 |
| 20260503234503 | 24 | 246 | 8.0 | 25.7 | 0.00 | 0.00 | 0.00 | 42 | 1007.2 |
| 20260503234003 | 24 | 250 | 11.3 | 25.7 | 0.00 | 0.00 | 0.00 | 41 | 1007.2 |
| 20260503233503 | 24 | 253 | 11.3 | 24.1 | 0.00 | 0.00 | 0.00 | 41 | 1007.2 |
| 20260503233003 | 25 | 259 | 9.7 | 19.3 | 0.00 | 0.00 | 0.00 | 41 | 1007.3 |
| 20260503232524 | 25 | 254 | 9.7 | 22.5 | 0.00 | 0.00 | 0.00 | 41 | 1007.3 |
| 20260503232024 | 25 | 249 | 11.3 | 24.1 | 0.00 | 0.00 | 0.00 | 41 | 1007.2 |
| 20260503231503 | 25 | 247 | 11.3 | 24.1 | 0.00 | 0.00 | 0.00 | 41 | 1007.3 |
| 20260503231003 | 25 | 244 | 9.7 | 24.1 | 0.00 | 0.00 | 0.00 | 40 | 1007.4 |
| 20260503230503 | 25 | 233 | 11.3 | 27.4 | 0.00 | 0.00 | 0.00 | 40 | 1007.4 |
| 20260503230003 | 25 | 228 | 11.3 | 27.4 | 0.00 | 0.00 | 0.00 | 39 | 1007.4 |
| 20260503225503 | 25 | 232 | 12.9 | 30.6 | 0.00 | 0.00 | 0.00 | 39 | 1007.5 |
| 20260503225003 | 25 | 225 | 14.5 | 30.6 | 0.00 | 0.00 | 0.00 | 40 | 1007.5 |
| 20260503224524 | 25 | 227 | 12.9 | 30.6 | 0.00 | 0.00 | 0.00 | 39 | 1007.5 |
| 20260503224003 | 25 | 241 | 11.3 | 30.6 | 0.00 | 0.00 | 0.00 | 39 | 1007.6 |
| 20260503223524 | 25 | 241 | 9.7 | 27.4 | 0.00 | 0.00 | 0.00 | 40 | 1007.6 |
| 20260503223003 | 25 | 237 | 9.7 | 24.1 | 0.00 | 0.00 | 0.00 | 39 | 1007.6 |
| 20260503222503 | 25 | 241 | 12.9 | 25.7 | 0.00 | 0.00 | 0.00 | 39 | 1007.6 |
| 20260503222003 | 25 | 245 | 14.5 | 29.0 | 0.00 | 0.00 | 0.00 | 39 | 1007.7 |
| 20260503221503 | 25 | 240 | 12.9 | 29.0 | 0.00 | 0.00 | 0.00 | 38 | 1007.7 |
| 20260503221003 | 25 | 233 | 11.3 | 25.7 | 0.00 | 0.00 | 0.00 | 38 | 1007.8 |
| 20260503220503 | 25 | 237 | 12.9 | 33.8 | 0.00 | 0.00 | 0.00 | 38 | 1007.8 |
| 20260503220003 | 25 | 235 | 14.5 | 33.8 | 0.00 | 0.00 | 0.00 | 38 | 1007.9 |
| 20260503215503 | 25 | 233 | 14.5 | 27.4 | 0.00 | 0.00 | 0.00 | 38 | 1008.1 |
| 20260503215003 | 25 | 240 | 12.9 | 25.7 | 0.00 | 0.00 | 0.00 | 38 | 1008.1 |
| 20260503214503 | 25 | 245 | 12.9 | 25.7 | 0.00 | 0.00 | 0.00 | 38 | 1008.1 |
| 20260503214003 | 25 | 241 | 12.9 | 25.7 | 0.00 | 0.00 | 0.00 | 38 | 1008.2 |
| 20260503213503 | 25 | 234 | 11.3 | 30.6 | 0.00 | 0.00 | 0.00 | 39 | 1008.2 |
| 20260503213024 | 25 | 238 | 14.5 | 32.2 | 0.00 | 0.00 | 0.00 | 40 | 1008.2 |
| 20260503212524 | 25 | 234 | 12.9 | 32.2 | 0.00 | 0.00 | 0.00 | 38 | 1008.3 |
| 20260503212003 | 25 | 225 | 11.3 | 29.0 | 0.00 | 0.00 | 0.00 | 39 | 1008.4 |
| 20260503211503 | 25 | 237 | 12.9 | 29.0 | 0.00 | 0.00 | 0.00 | 40 | 1008.4 |
| 20260503211003 | 25 | 231 | 11.3 | 25.7 | 0.00 | 0.00 | 0.00 | 39 | 1008.5 |
| 20260503210503 | 25 | 221 | 9.7 | 25.7 | 0.00 | 0.00 | 0.00 | 39 | 1008.6 |
| 20260503210003 | 25 | 219 | 11.3 | 30.6 | 0.00 | 0.00 | 0.00 | 39 | 1008.7 |
| 20260503205503 | 24 | 216 | 11.3 | 32.2 | 0.00 | 0.00 | 0.00 | 39 | 1008.8 |
| 20260503205024 | 24 | 222 | 11.3 | 32.2 | 0.00 | 0.00 | 0.00 | 38 | 1008.7 |
| 20260503204503 | 24 | 224 | 12.9 | 30.6 | 0.00 | 0.00 | 0.00 | 39 | 1008.8 |
| 20260503204003 | 24 | 212 | 14.5 | 30.6 | 0.00 | 0.00 | 0.00 | 40 | 1008.8 |
| 20260503203503 | 24 | 211 | 12.9 | 30.6 | 0.00 | 0.00 | 0.00 | 39 | 1008.8 |
| 20260503203003 | 24 | 221 | 12.9 | 27.4 | 0.00 | 0.00 | 0.00 | 41 | 1008.9 |
| 20260503202524 | 24 | 218 | 12.9 | 27.4 | 0.00 | 0.00 | 0.00 | 40 | 1009.0 |
| 20260503202003 | 23 | 227 | 11.3 | 37.0 | 0.00 | 0.00 | 0.00 | 39 | 1009.2 |
| 20260503201503 | 23 | 231 | 14.5 | 37.0 | 0.00 | 0.00 | 0.00 | 40 | 1009.2 |
| 20260503201003 | 23 | 216 | 12.9 | 30.6 | 0.00 | 0.00 | 0.00 | 39 | 1009.3 |
| 20260503200503 | 23 | 221 | 12.9 | 33.8 | 0.00 | 0.00 | 0.00 | 42 | 1009.4 |
| 20260503200003 | 23 | 224 | 12.9 | 33.8 | 0.00 | 0.00 | 0.00 | 40 | 1009.6 |
| 20260503195503 | 23 | 206 | 12.9 | 32.2 | 0.00 | 0.00 | 0.00 | 42 | 1009.7 |
| 20260503195003 | 23 | 195 | 16.1 | 32.2 | 0.00 | 0.00 | 0.00 | 41 | 1009.7 |
| 20260503194503 | 23 | 200 | 14.5 | 32.2 | 0.00 | 0.00 | 0.00 | 40 | 1009.9 |
| 20260503194003 | 23 | 205 | 12.9 | 27.4 | 0.00 | 0.00 | 0.00 | 42 | 1010.1 |
| 20260503193524 | 22 | 209 | 14.5 | 33.8 | 0.00 | 0.00 | 0.00 | 41 | 1010.1 |
| 20260503193003 | 22 | 223 | 12.9 | 33.8 | 0.00 | 0.00 | 0.00 | 42 | 1010.2 |
| 20260503192524 | 22 | 226 | 14.5 | 30.6 | 0.00 | 0.00 | 0.00 | 43 | 1010.4 |
| 20260503192003 | 22 | 222 | 17.7 | 33.8 | 0.00 | 0.00 | 0.00 | 43 | 1010.5 |
| 20260503191524 | 22 | 220 | 16.1 | 33.8 | 0.00 | 0.00 | 0.00 | 42 | 1010.7 |
| 20260503191003 | 22 | 208 | 16.1 | 30.6 | 0.00 | 0.00 | 0.00 | 42 | 1010.9 |
| 20260503190503 | 22 | 200 | 16.1 | 30.6 | 0.00 | 0.00 | 0.00 | 44 | 1010.9 |
| 20260503190003 | 21 | 204 | 17.7 | 37.0 | 0.00 | 0.00 | 0.00 | 42 | 1011.0 |
| 20260503185503 | 21 | 206 | 17.7 | 37.0 | 0.00 | 0.00 | 0.00 | 41 | 1011.2 |
| 20260503185003 | 21 | 208 | 16.1 | 37.0 | 0.00 | 0.00 | 0.00 | 41 | 1011.3 |
| 20260503184503 | 21 | 210 | 16.1 | 32.2 | 0.00 | 0.00 | 0.00 | 43 | 1011.5 |
| 20260503184003 | 21 | 213 | 14.5 | 38.6 | 0.00 | 0.00 | 0.00 | 41 | 1011.6 |
| 20260503183524 | 21 | 203 | 14.5 | 38.6 | 0.00 | 0.00 | 0.00 | 45 | 1011.6 |
| 20260503183003 | 21 | 197 | 16.1 | 37.0 | 0.00 | 0.00 | 0.00 | 42 | 1011.8 |
| 20260503182503 | 21 | 197 | 14.5 | 30.6 | 0.00 | 0.00 | 0.00 | 42 | 1012.0 |
| 20260503182004 | 21 | 205 | 12.9 | 30.6 | 0.00 | 0.00 | 0.00 | 43 | 1011.9 |
| 20260503181524 | 21 | 203 | 14.5 | 32.2 | 0.00 | 0.00 | 0.00 | 42 | 1012.0 |
| 20260503181003 | 21 | 192 | 14.5 | 32.2 | 0.00 | 0.00 | 0.00 | 42 | 1012.1 |
| 20260503180503 | 21 | 197 | 14.5 | 29.0 | 0.00 | 0.00 | 0.00 | 45 | 1012.2 |
| 20260503180003 | 20 | 202 | 12.9 | 30.6 | 0.00 | 0.00 | 0.00 | 46 | 1012.3 |
| 20260503175524 | 20 | 204 | 14.5 | 32.2 | 0.00 | 0.00 | 0.00 | 46 | 1012.5 |
| 20260503175003 | 20 | 201 | 16.1 | 33.8 | 0.00 | 0.00 | 0.00 | 45 | 1012.7 |
| 20260503174503 | 20 | 199 | 16.1 | 33.8 | 0.00 | 0.00 | 0.00 | 43 | 1012.9 |
| 20260503174024 | 20 | 202 | 12.9 | 30.6 | 0.00 | 0.00 | 0.00 | 45 | 1013.1 |
| 20260503173503 | 20 | 207 | 11.3 | 27.4 | 0.00 | 0.00 | 0.00 | 47 | 1013.2 |
| 20260503173003 | 20 | 207 | 12.9 | 27.4 | 0.00 | 0.00 | 0.00 | 45 | 1013.5 |
| 20260503172503 | 20 | 208 | 11.3 | 24.1 | 0.00 | 0.00 | 0.00 | 46 | 1013.8 |
| 20260503172003 | 19 | 210 | 11.3 | 27.4 | 0.00 | 0.00 | 0.00 | 46 | 1014.1 |
| 20260503171503 | 19 | 205 | 12.9 | 29.0 | 0.00 | 0.00 | 0.00 | 48 | 1014.3 |
| 20260503171003 | 19 | 204 | 12.9 | 29.0 | 0.00 | 0.00 | 0.00 | 47 | 1014.2 |
| 20260503170503 | 19 | 199 | 12.9 | 30.6 | 0.00 | 0.00 | 0.00 | 48 | 1014.3 |